星链-11154 (STARLINK-11154)

导读

STARLINK-11154是美国太空探索技术公司SpaceX星链星座的卫星,于2024年9月13日发射升空,星链星座旨在通过低轨卫星组网,为全球提供高速低延迟宽带互联网服务,尤其覆盖偏远、地面基础设施缺失区域。该卫星入轨后,进一步扩充星链在轨卫星规模,助力提升星座服务覆盖能力与网络稳定性,不过星链大规模部署也引发了太空交通、天文观测等领域的争议。

基本信息
目录编号:
61059
目录名称:
STARLINK-11154
国际标识:
2024-164K
轨道中心:
EARTH
卫星名称:
星链-11154
卫星全名:
星链-11154 (STARLINK-11154)
卫星状态:
在轨 (已飞行728 天)
发射日期:
2024-09-13 UTC
国别 :
美国 (US)
星等 :
--
该卫星已列入 空间交会检测服务 Space Conjunction Data Service (SCDS) ,当前飞行风险评估等级: 无高风险
轨道信息
数据来源 国际轨道数据 AOE轨道数据
星历时间 2026-09-10T06:28:32+0800
1天前
查看轨道信息
2026-09-06T22:00:00+0800
4天前
查看轨道信息
半长轴 6737.881km 6737.793km
偏心率 0.0000765 0.0001764
轨道倾角 53.158° 53.164°
近地点辐角 93.328° 202.351°
升交点赤经 123.241° 139.770°
平近点角 266.783° 278.440°
近地点 359.228km 358.467km
远地点 360.26km 360.845km
周期 91.737分钟 91.735分钟
每日圈数 15.697041 15.69735
详细信息
固有亮度:
5
最大亮度:
2.5
卫星平台:
Starlink V1.0
覆盖范围:
全球
运营商:
太空探索技术公司
运营商所在国:
美国
制造商(研发单位):
太空探索技术公司
制造商所在国:
美国
使用方式:
暂无
卫星简介
Starlink 计划是 SpaceX 推出的全球卫星互联网项目,通过发射低轨道卫星,为全球尤其是偏远地区提供高速、低延迟的互联网服务。自 2019 年起,Starlink 已部署数千颗卫星,旨在缩小全球数字鸿沟,推动互联网普及。该项目还为军事、航空等行业提供通信支持,带来广泛经济效益。
2D轨道图
3D轨道图
轨道高度分析图
轨道倾角分析图
轨道综合分析图
查看轨道综合分析图
与全量物体交会距离演化趋势
与全量物体交会风险概率演化趋势